Location: Dürabuch
(48.2640°N, 11.2185°E)
Time: 22:09:23
(UTC+00:00)

Cosmos 1709 Rocket - Pass Details

Date: 23 May 2024
Orbit: 948 x 1000 km, 82.9° (Epoch: 14 June)

Event Time Altitude Azimuth Distance (km) Brightness Sun altitude
Exits shadow 01:49:42 16° 210° (SSW) 2,303 5.3 -12.6°
Maximum altitude 01:54:38 56° 284° (WNW) 1,178 4.3 -12.1°
Drops below altitude 10° 02:00:54 10° 2° (N) 2,781 7.2 -11.4°
Sets 02:03:31 0° 7° (N) 3,736 8.1 -11.1°
